Mobile, AL

7:33 AM CST on November 19, 2017 (GMT -0600)
Mobile Regional

Weather History for KMOB - May, 2013

Change the Weather History Date:

Wednesday, May 8, 2013

  Actual Average Record
Temperature  
Mean Temperature 69 °F 72 °F  
Max Temperature 83 °F 83 °F 91 °F (2004)
Min Temperature 55 °F 62 °F 44 °F (1992)
Cooling Degree Days 4 7  
Month to date cooling degree days 10 52  
Year to date cooling degree days 147 211  
Growing Degree Days 18 (Base 50)    
Moisture  
Dew Point 57 °F    
Average Humidity 65    
Maximum Humidity 93    
Minimum Humidity 37    
Precipitation  
Precipitation 0.00 in 0.16 in 3.10 in (1876)
Month to date precipitation 7.01 1.26  
Year to date precipitation 27.47 22.96  
Sea Level Pressure  
Sea Level Pressure 30.07 in    
Wind  
Wind Speed 4 mph (SW)    
Max Wind Speed 15 mph    
Max Gust Speed 18 mph    
Visibility 7 miles    
Events Fog    
T = Trace of Precipitation, MM = Missing Value Source: NWS Daily Summary

Daily Weather History Graph

Daily Weather History Graph

Search for Another Location

Airport or City:

Trip Planner

Search our weather history database for the weather conditions in past years. The results will help you decide how hot, cold, wet, or windy it might be!

Date:

Astronomy

May. 08, 2013 Rise Set
Actual Time 6:02 AM CDT 7:36 PM CDT
Civil Twilight 5:36 AM CDT 8:02 PM CDT
Nautical Twilight 5:05 AM CDT 8:33 PM CDT
Astronomical Twilight 4:33 AM CDT 9:06 PM CDT
Moon 5:05 AM CDT (5/8) 6:37 PM CDT (5/8)
Length of Visible Light 14h 25m
Length of Day
13h 33m
Waning Crescent, 2% of the Moon is Illuminated
May 8
Waning Crescent
May 9
New
May 17
First Quarter
May 24
Full
May 31
Last Quarter

Hourly Weather History & Observations

Time (CDT) Temp. Heat Index Dew Point Humidity Pressure Visibility Wind Dir Wind Speed Gust Speed Precip Events Conditions
12:56 AM 60.1 °F - 57.0 °F 90% 30.04 in 10.0 mi Calm Calm - N/A   Clear
1:31 AM 57.2 °F - 55.4 °F 94% 30.04 in 10.0 mi Calm Calm - N/A   Scattered Clouds
1:39 AM 57.2 °F - 55.4 °F 94% 30.04 in 10.0 mi Calm Calm - N/A   Mostly Cloudy
1:56 AM 57.0 °F - 55.0 °F 93% 30.03 in 5.0 mi Calm Calm - N/A   Overcast
2:02 AM 57.2 °F - 55.4 °F 94% 30.03 in 1.8 mi Calm Calm - N/A   Overcast
2:12 AM 57.2 °F - 55.4 °F 94% 30.03 in 0.5 mi Calm Calm - N/A Fog Fog
2:21 AM 57.2 °F - 55.4 °F 94% 30.03 in 0.2 mi Calm Calm - N/A Fog Fog
2:56 AM 57.0 °F - 55.0 °F 93% 30.02 in 0.2 mi Calm Calm - N/A Fog Fog
3:56 AM 57.0 °F - 55.9 °F 96% 30.02 in 0.2 mi Calm Calm - N/A Fog Fog
4:56 AM 57.0 °F - 55.0 °F 93% 30.03 in 0.2 mi Calm Calm - N/A Fog Fog
5:05 AM 55.4 °F - 55.4 °F 100% 30.04 in 0.5 mi Calm Calm - N/A Fog Fog
5:13 AM 55.4 °F - 55.4 °F 100% 30.04 in 0.2 mi Calm Calm - N/A Fog Fog
5:44 AM 55.4 °F - 53.6 °F 94% 30.05 in 0.8 mi Calm Calm - N/A   Mist
5:56 AM 55.0 °F - 53.1 °F 93% 30.05 in 0.8 mi Calm Calm - N/A   Scattered Clouds
6:08 AM 55.4 °F - 53.6 °F 94% 30.06 in 3.0 mi Calm Calm - N/A   Scattered Clouds
6:56 AM 59.0 °F - 57.9 °F 96% 30.08 in 7.0 mi Calm Calm - N/A   Scattered Clouds
7:56 AM 66.0 °F - 60.1 °F 81% 30.09 in 10.0 mi Calm Calm - N/A   Mostly Cloudy
8:56 AM 72.0 °F - 59.0 °F 64% 30.10 in 10.0 mi North 4.6 mph - N/A   Mostly Cloudy
9:56 AM 73.9 °F - 57.0 °F 55% 30.11 in 10.0 mi Calm Calm - N/A   Mostly Cloudy
10:56 AM 77.0 °F - 55.0 °F 47% 30.12 in 10.0 mi Variable 4.6 mph - N/A   Mostly Cloudy
11:56 AM 79.0 °F - 55.9 °F 45% 30.12 in 10.0 mi WNW 6.9 mph - N/A   Mostly Cloudy
12:56 PM 77.0 °F - 55.0 °F 47% 30.10 in 10.0 mi Variable 3.5 mph - N/A   Mostly Cloudy
1:56 PM 82.0 °F 81.6 °F 55.9 °F 41% 30.10 in 10.0 mi NW 8.1 mph - N/A   Mostly Cloudy
2:56 PM 82.0 °F 81.3 °F 54.0 °F 38% 30.07 in 10.0 mi Calm Calm - N/A   Mostly Cloudy
3:56 PM 80.1 °F 80.6 °F 57.9 °F 47% 30.06 in 10.0 mi SW 4.6 mph - N/A   Mostly Cloudy
4:56 PM 78.1 °F - 59.0 °F 52% 30.06 in 10.0 mi SSW 11.5 mph - N/A   Overcast
5:56 PM 75.9 °F - 57.0 °F 52% 30.06 in 10.0 mi SW 11.5 mph - N/A   Scattered Clouds
6:56 PM 73.9 °F - 59.0 °F 59% 30.06 in 10.0 mi SSW 10.4 mph - N/A   Partly Cloudy
7:56 PM 70.0 °F - 60.1 °F 71% 30.08 in 10.0 mi SSW 8.1 mph - N/A   Scattered Clouds
8:56 PM 69.1 °F - 61.0 °F 75% 30.09 in 10.0 mi SW 6.9 mph - N/A   Clear
9:56 PM 66.9 °F - 61.0 °F 81% 30.10 in 10.0 mi SW 4.6 mph - N/A   Clear
10:56 PM 64.9 °F - 60.1 °F 84% 30.11 in 10.0 mi SW 6.9 mph - N/A   Clear
11:56 PM 64.0 °F - 59.0 °F 84% 30.11 in 10.0 mi SSW 5.8 mph - N/A   Clear